{"data":{"norad_id":64547,"epoch":"2026-09-21T20:28:01.858656Z","epoch_age_seconds":64641,"freshness":"FRESH","line1":"1 64547U 25135V   26264.85279929  .00005801  00000+0  22576-3 0  9991","line2":"2 64547  97.4702  20.4678 0000689 118.6529 241.4778 15.26398788 69666","mean_motion":15.26398788,"eccentricity":6.89e-5,"inclination_deg":97.4702,"raan_deg":20.4678,"arg_perigee_deg":118.6529,"mean_anomaly_deg":241.4778,"bstar":0.00022576,"rev_number":6966,"period_min":94.339697549603,"perigee_km":486.11537085564,"apogee_km":487.06133000893,"semimajor_km":6864.7253504323,"source":"CELESTRAK","updated_at":"2026-09-22T09:00:29.843268Z"}}